GATCU FGAN-FPST

Flight info

Callsign GATCU
Flight time 1h 6m
Altitude 2500
Route VFR DCT
Aircraft DR40/L-DOV/C

Departure

Time 2026-04-20 18:12
Airport Annobón Airport (FGAN)

Arrival

Time 2026-04-20 19:19
Airport São Tomé International Airport (FPST)
Time Latitude Longitude Altitude Speed Heading
2026-04-20 17:25 -1.40954 5.62114 85 ft 0 kts 49°
2026-04-20 18:02 -1.40951 5.62117 84 ft 2 kts 42°
2026-04-20 18:02 -1.40941 5.62127 83 ft 0 kts 87°
2026-04-20 18:03 -1.40993 5.62148 91 ft 11 kts 202°
2026-04-20 18:03 -1.41031 5.62135 94 ft 3 kts 156°
2026-04-20 18:03 -1.41049 5.62151 94 ft 4 kts 130°
2026-04-20 18:03 -1.41057 5.62186 94 ft 7 kts 48°
2026-04-20 18:04 -1.41007 5.62238 92 ft 12 kts 50°
2026-04-20 18:04 -1.40942 5.62312 88 ft 15 kts 51°
2026-04-20 18:04 -1.40861 5.62401 84 ft 17 kts 54°
2026-04-20 18:04 -1.40793 5.62430 81 ft 1 kts 303°
2026-04-20 18:05 -1.40777 5.62450 81 ft 7 kts 38°
2026-04-20 18:05 -1.40767 5.62441 80 ft 0 kts 223°
2026-04-20 18:05 -1.40772 5.62439 80 ft 0 kts 185°
2026-04-20 18:09 -1.40793 5.62441 81 ft 4 kts 154°
2026-04-20 18:10 -1.40800 5.62447 81 ft 5 kts 134°
2026-04-20 18:10 -1.40830 5.62451 82 ft 0 kts 225°
2026-04-20 18:11 -1.40833 5.62448 82 ft 9 kts 226°
2026-04-20 18:11 -1.41028 5.62239 93 ft 67 kts 231°
2026-04-20 18:11 -1.41356 5.61818 242 ft 80 kts 229°
2026-04-20 18:12 -1.41705 5.61367 449 ft 81 kts 228°
2026-04-20 18:12 -1.42025 5.60887 596 ft 93 kts 255°
2026-04-20 18:12 -1.41768 5.60268 663 ft 106 kts 329°
2026-04-20 18:12 -1.41072 5.60259 830 ft 103 kts 29°
2026-04-20 18:13 -1.40502 5.60646 1079 ft 96 kts 34°
2026-04-20 18:13 -1.40075 5.60927 1202 ft 99 kts 38°
2026-04-20 18:13 -1.39515 5.61360 1351 ft 102 kts 41°
2026-04-20 18:13 -1.38949 5.61784 1518 ft 102 kts 39°
2026-04-20 18:14 -1.38377 5.62221 1685 ft 103 kts 41°
2026-04-20 18:14 -1.37801 5.62650 1858 ft 103 kts 39°
2026-04-20 18:14 -1.37225 5.63062 2024 ft 103 kts 32°
2026-04-20 18:14 -1.36639 5.63486 2176 ft 103 kts 39°
2026-04-20 18:15 -1.36082 5.63931 2340 ft 103 kts 39°
2026-04-20 18:15 -1.35504 5.64366 2511 ft 103 kts 39°
2026-04-20 18:15 -1.35026 5.64724 2507 ft 115 kts 39°
2026-04-20 18:15 -1.34363 5.65230 2494 ft 122 kts 39°
2026-04-20 18:16 -1.33670 5.65754 2489 ft 125 kts 38°
2026-04-20 18:16 -1.33181 5.66127 2486 ft 126 kts 39°
2026-04-20 18:16 -1.32476 5.66662 2487 ft 127 kts 39°
2026-04-20 18:16 -1.31761 5.67201 2488 ft 127 kts 39°
2026-04-20 18:17 -1.31060 5.67730 2485 ft 127 kts 39°
2026-04-20 18:17 -1.30354 5.68274 2487 ft 127 kts 39°
2026-04-20 18:17 -1.29642 5.68810 2485 ft 127 kts 38°
2026-04-20 18:17 -1.28930 5.69353 2486 ft 127 kts 39°
2026-04-20 18:18 -1.28293 5.69837 2485 ft 127 kts 39°
2026-04-20 18:18 -1.27793 5.70215 2486 ft 127 kts 39°
2026-04-20 18:18 -1.27082 5.70756 2486 ft 127 kts 39°
2026-04-20 18:18 -1.26372 5.71301 2487 ft 127 kts 40°
2026-04-20 18:19 -1.25672 5.71834 2486 ft 127 kts 39°
2026-04-20 18:19 -1.24955 5.72376 2486 ft 127 kts 39°
2026-04-20 18:19 -1.24249 5.72909 2486 ft 127 kts 38°
2026-04-20 18:19 -1.23534 5.73444 2487 ft 127 kts 36°
2026-04-20 18:20 -1.22794 5.73930 2486 ft 128 kts 35°
2026-04-20 18:20 -1.22039 5.74415 2486 ft 128 kts 36°
2026-04-20 18:20 -1.21294 5.74903 2487 ft 128 kts 36°
2026-04-20 18:20 -1.20534 5.75394 2486 ft 128 kts 36°
2026-04-20 18:21 -1.19779 5.75875 2486 ft 128 kts 36°
2026-04-20 18:21 -1.19043 5.76346 2483 ft 123 kts 35°
2026-04-20 18:21 -1.18329 5.76802 2483 ft 118 kts 36°
2026-04-20 18:21 -1.17640 5.77241 2484 ft 116 kts 34°
2026-04-20 18:22 -1.16965 5.77670 2485 ft 115 kts 36°
2026-04-20 18:22 -1.16286 5.78104 2486 ft 114 kts 35°
2026-04-20 18:22 -1.15620 5.78527 2487 ft 114 kts 36°
2026-04-20 18:22 -1.14945 5.78959 2486 ft 114 kts 36°
2026-04-20 18:23 -1.14280 5.79385 2486 ft 114 kts 36°
2026-04-20 18:23 -1.13604 5.79814 2487 ft 114 kts 36°
2026-04-20 18:23 -1.12932 5.80244 2487 ft 114 kts 35°
2026-04-20 18:23 -1.12260 5.80674 2486 ft 114 kts 35°
2026-04-20 18:24 -1.11590 5.81100 2487 ft 114 kts 35°
2026-04-20 18:24 -1.10912 5.81529 2487 ft 114 kts 35°
2026-04-20 18:24 -1.10243 5.81959 2487 ft 114 kts 36°
2026-04-20 18:24 -1.09574 5.82384 2486 ft 114 kts 35°
2026-04-20 18:25 -1.08899 5.82815 2487 ft 114 kts 36°
2026-04-20 18:25 -1.08682 5.82954 2596 ft 114 kts 32°
2026-04-20 18:25 -1.08037 5.83372 2671 ft 109 kts 32°
2026-04-20 18:25 -1.07379 5.83788 2683 ft 112 kts 33°
2026-04-20 18:26 -1.06714 5.84210 2683 ft 114 kts 33°
2026-04-20 18:26 -1.06040 5.84639 2683 ft 115 kts 33°
2026-04-20 18:26 -1.05357 5.85075 2682 ft 115 kts 33°
2026-04-20 18:26 -1.04685 5.85503 2682 ft 115 kts 33°
2026-04-20 18:27 -1.03999 5.85941 2682 ft 115 kts 33°
2026-04-20 18:27 -1.03315 5.86377 2682 ft 116 kts 33°
2026-04-20 18:27 -1.02635 5.86811 2682 ft 116 kts 33°
2026-04-20 18:27 -1.01957 5.87243 2682 ft 116 kts 33°
2026-04-20 18:28 -1.01276 5.87678 2682 ft 116 kts 33°
2026-04-20 18:28 -1.00592 5.88113 2682 ft 116 kts 33°
2026-04-20 18:28 -0.99909 5.88549 2682 ft 116 kts 33°
2026-04-20 18:28 -0.99231 5.88979 2682 ft 116 kts 33°
2026-04-20 18:29 -0.98545 5.89415 2682 ft 116 kts 32°
2026-04-20 18:29 -0.97858 5.89852 2682 ft 116 kts 33°
2026-04-20 18:29 -0.97181 5.90283 2682 ft 116 kts 33°
2026-04-20 18:29 -0.96493 5.90721 2682 ft 116 kts 33°
2026-04-20 18:30 -0.95817 5.91152 2682 ft 116 kts 33°
2026-04-20 18:30 -0.95134 5.91587 2682 ft 116 kts 33°
2026-04-20 18:30 -0.94444 5.92026 2682 ft 116 kts 33°
2026-04-20 18:30 -0.93762 5.92461 2682 ft 116 kts 33°
2026-04-20 18:31 -0.93082 5.92895 2682 ft 116 kts 33°
2026-04-20 18:31 -0.92394 5.93332 2683 ft 117 kts 33°
2026-04-20 18:31 -0.91696 5.93778 2683 ft 118 kts 33°
2026-04-20 18:31 -0.90999 5.94222 2682 ft 118 kts 33°
2026-04-20 18:32 -0.90306 5.94665 2682 ft 119 kts 33°
2026-04-20 18:32 -0.89601 5.95114 2682 ft 119 kts 33°
2026-04-20 18:32 -0.88906 5.95558 2681 ft 119 kts 33°
2026-04-20 18:32 -0.88204 5.96005 2681 ft 119 kts 33°
2026-04-20 18:33 -0.87503 5.96452 2681 ft 119 kts 33°
2026-04-20 18:33 -0.86805 5.96897 2681 ft 119 kts 33°
2026-04-20 18:33 -0.86105 5.97344 2681 ft 119 kts 33°
2026-04-20 18:33 -0.85406 5.97790 2681 ft 119 kts 33°
2026-04-20 18:34 -0.84701 5.98239 2681 ft 119 kts 33°
2026-04-20 18:34 -0.84005 5.98683 2681 ft 119 kts 33°
2026-04-20 18:34 -0.83303 5.99131 2681 ft 119 kts 33°
2026-04-20 18:34 -0.82602 5.99578 2681 ft 119 kts 33°
2026-04-20 18:35 -0.81902 6.00024 2681 ft 119 kts 33°
2026-04-20 18:35 -0.81207 6.00468 2681 ft 119 kts 33°
2026-04-20 18:35 -0.80502 6.00918 2681 ft 119 kts 33°
2026-04-20 18:35 -0.79808 6.01362 2681 ft 119 kts 33°
2026-04-20 18:36 -0.79099 6.01814 2681 ft 119 kts 33°
2026-04-20 18:36 -0.78408 6.02255 2681 ft 119 kts 33°
2026-04-20 18:36 -0.77705 6.02704 2681 ft 119 kts 33°
2026-04-20 18:36 -0.76999 6.03154 2681 ft 119 kts 33°
2026-04-20 18:37 -0.76307 6.03594 2681 ft 119 kts 33°
2026-04-20 18:37 -0.75607 6.04042 2681 ft 119 kts 33°
2026-04-20 18:37 -0.74906 6.04490 2681 ft 119 kts 33°
2026-04-20 18:37 -0.74206 6.04936 2681 ft 118 kts 33°
2026-04-20 18:38 -0.73506 6.05383 2681 ft 118 kts 33°
2026-04-20 18:38 -0.72805 6.05829 2681 ft 118 kts 33°
2026-04-20 18:38 -0.72113 6.06271 2681 ft 119 kts 33°
2026-04-20 18:38 -0.71415 6.06716 2681 ft 119 kts 33°
2026-04-20 18:39 -0.70708 6.07167 2681 ft 119 kts 33°
2026-04-20 18:39 -0.70008 6.07612 2681 ft 119 kts 33°
2026-04-20 18:39 -0.69317 6.08053 2681 ft 119 kts 33°
2026-04-20 18:39 -0.68618 6.08499 2681 ft 119 kts 33°
2026-04-20 18:40 -0.67917 6.08944 2681 ft 119 kts 33°
2026-04-20 18:40 -0.67215 6.09391 2681 ft 119 kts 33°
2026-04-20 18:40 -0.66513 6.09838 2681 ft 119 kts 33°
2026-04-20 18:40 -0.65819 6.10280 2681 ft 119 kts 33°
2026-04-20 18:41 -0.65116 6.10728 2681 ft 119 kts 33°
2026-04-20 18:41 -0.64414 6.11176 2681 ft 119 kts 33°
2026-04-20 18:41 -0.63715 6.11621 2681 ft 119 kts 33°
2026-04-20 18:41 -0.63012 6.12070 2681 ft 119 kts 33°
2026-04-20 18:42 -0.62320 6.12511 2681 ft 119 kts 33°
2026-04-20 18:42 -0.61618 6.12959 2681 ft 119 kts 33°
2026-04-20 18:42 -0.60912 6.13409 2681 ft 119 kts 33°
2026-04-20 18:42 -0.60211 6.13857 2681 ft 119 kts 33°
2026-04-20 18:43 -0.59519 6.14298 2681 ft 119 kts 33°
2026-04-20 18:43 -0.58815 6.14748 2681 ft 119 kts 33°
2026-04-20 18:43 -0.58121 6.15190 2682 ft 119 kts 33°
2026-04-20 18:43 -0.57412 6.15641 2682 ft 119 kts 33°
2026-04-20 18:44 -0.56718 6.16084 2681 ft 119 kts 33°
2026-04-20 18:44 -0.56016 6.16532 2681 ft 119 kts 33°
2026-04-20 18:44 -0.55323 6.16974 2681 ft 119 kts 33°
2026-04-20 18:44 -0.54622 6.17421 2681 ft 119 kts 33°
2026-04-20 18:45 -0.53919 6.17870 2682 ft 119 kts 33°
2026-04-20 18:45 -0.53220 6.18316 2682 ft 119 kts 33°
2026-04-20 18:45 -0.52523 6.18761 2682 ft 119 kts 33°
2026-04-20 18:45 -0.51825 6.19203 2681 ft 119 kts 32°
2026-04-20 18:46 -0.51121 6.19651 2682 ft 119 kts 33°
2026-04-20 18:46 -0.50421 6.20097 2682 ft 119 kts 33°
2026-04-20 18:46 -0.49722 6.20543 2682 ft 119 kts 33°
2026-04-20 18:46 -0.49005 6.21000 2581 ft 126 kts 33°
2026-04-20 18:47 -0.48258 6.21478 2520 ft 125 kts 33°
2026-04-20 18:47 -0.47525 6.21946 2515 ft 122 kts 33°
2026-04-20 18:47 -0.46799 6.22408 2517 ft 123 kts 33°
2026-04-20 18:47 -0.46077 6.22868 2517 ft 124 kts 33°
2026-04-20 18:48 -0.45341 6.23337 2517 ft 124 kts 33°
2026-04-20 18:48 -0.44607 6.23804 2517 ft 124 kts 33°
2026-04-20 18:48 -0.43874 6.24272 2517 ft 124 kts 33°
2026-04-20 18:48 -0.43146 6.24736 2517 ft 124 kts 33°
2026-04-20 18:49 -0.42411 6.25205 2517 ft 124 kts 33°
2026-04-20 18:49 -0.41684 6.25668 2517 ft 124 kts 33°
2026-04-20 18:49 -0.40947 6.26138 2517 ft 124 kts 33°
2026-04-20 18:49 -0.40214 6.26605 2517 ft 124 kts 33°
2026-04-20 18:50 -0.39486 6.27069 2517 ft 124 kts 33°
2026-04-20 18:50 -0.38753 6.27537 2517 ft 124 kts 33°
2026-04-20 18:50 -0.38014 6.28008 2517 ft 124 kts 33°
2026-04-20 18:50 -0.37282 6.28475 2517 ft 124 kts 33°
2026-04-20 18:51 -0.36558 6.28937 2517 ft 124 kts 33°
2026-04-20 18:51 -0.35821 6.29406 2517 ft 124 kts 33°
2026-04-20 18:51 -0.35092 6.29872 2517 ft 124 kts 33°
2026-04-20 18:51 -0.34351 6.30344 2517 ft 124 kts 33°
2026-04-20 18:52 -0.33623 6.30808 2517 ft 124 kts 33°
2026-04-20 18:52 -0.32885 6.31278 2517 ft 124 kts 33°
2026-04-20 18:52 -0.32159 6.31741 2517 ft 124 kts 33°
2026-04-20 18:52 -0.31420 6.32212 2517 ft 124 kts 33°
2026-04-20 18:53 -0.30689 6.32678 2517 ft 124 kts 33°
2026-04-20 18:53 -0.29954 6.33147 2517 ft 124 kts 33°
2026-04-20 18:53 -0.29220 6.33614 2517 ft 124 kts 33°
2026-04-20 18:53 -0.28495 6.34077 2517 ft 124 kts 33°
2026-04-20 18:54 -0.27764 6.34542 2517 ft 124 kts 33°
2026-04-20 18:54 -0.27023 6.35014 2517 ft 124 kts 33°
2026-04-20 18:54 -0.26294 6.35479 2517 ft 124 kts 33°
2026-04-20 18:54 -0.25561 6.35947 2517 ft 124 kts 33°
2026-04-20 18:55 -0.24834 6.36411 2517 ft 124 kts 33°
2026-04-20 18:55 -0.24102 6.36877 2517 ft 124 kts 33°
2026-04-20 18:55 -0.23366 6.37347 2517 ft 124 kts 33°
2026-04-20 18:55 -0.22632 6.37815 2517 ft 124 kts 33°
2026-04-20 18:56 -0.21896 6.38284 2517 ft 124 kts 33°
2026-04-20 18:56 -0.21162 6.38752 2517 ft 124 kts 33°
2026-04-20 18:56 -0.20437 6.39214 2517 ft 124 kts 33°
2026-04-20 18:56 -0.19703 6.39682 2517 ft 124 kts 33°
2026-04-20 18:57 -0.18969 6.40150 2517 ft 124 kts 33°
2026-04-20 18:57 -0.18230 6.40622 2517 ft 124 kts 33°
2026-04-20 18:57 -0.17498 6.41090 2517 ft 124 kts 33°
2026-04-20 18:57 -0.16765 6.41556 2517 ft 124 kts 33°
2026-04-20 18:58 -0.16033 6.42024 2517 ft 124 kts 33°
2026-04-20 18:58 -0.15301 6.42490 2517 ft 124 kts 33°
2026-04-20 18:58 -0.14574 6.42954 2517 ft 124 kts 33°
2026-04-20 18:58 -0.13837 6.43424 2517 ft 124 kts 33°
2026-04-20 18:59 -0.13107 6.43889 2517 ft 124 kts 33°
2026-04-20 18:59 -0.12375 6.44356 2517 ft 124 kts 33°
2026-04-20 18:59 -0.11640 6.44824 2517 ft 124 kts 33°
2026-04-20 18:59 -0.10904 6.45293 2517 ft 124 kts 33°
2026-04-20 19:00 -0.10166 6.45763 2517 ft 124 kts 33°
2026-04-20 19:00 -0.09436 6.46228 2517 ft 124 kts 33°
2026-04-20 19:00 -0.08703 6.46695 2517 ft 124 kts 33°
2026-04-20 19:00 -0.07964 6.47166 2517 ft 124 kts 33°
2026-04-20 19:01 -0.07237 6.47629 2517 ft 125 kts 33°
2026-04-20 19:01 -0.06501 6.48099 2517 ft 125 kts 33°
2026-04-20 19:01 -0.05762 6.48570 2517 ft 125 kts 33°
2026-04-20 19:01 -0.05029 6.49039 2517 ft 125 kts 33°
2026-04-20 19:02 -0.04294 6.49510 2517 ft 125 kts 33°
2026-04-20 19:02 -0.03566 6.49976 2517 ft 125 kts 33°
2026-04-20 19:02 -0.02824 6.50450 2517 ft 125 kts 33°
2026-04-20 19:02 -0.02095 6.50915 2517 ft 125 kts 33°
2026-04-20 19:03 -0.01357 6.51386 2517 ft 125 kts 33°
2026-04-20 19:03 -0.00620 6.51856 2517 ft 125 kts 33°
2026-04-20 19:03 0.00102 6.52346 2514 ft 125 kts 38°
2026-04-20 19:03 0.00794 6.52885 2449 ft 129 kts 39°
2026-04-20 19:04 0.01510 6.53445 2376 ft 131 kts 39°
2026-04-20 19:04 0.02235 6.54013 2302 ft 131 kts 39°
2026-04-20 19:04 0.02959 6.54579 2228 ft 132 kts 39°
2026-04-20 19:04 0.03684 6.55146 2154 ft 132 kts 39°
2026-04-20 19:05 0.04406 6.55710 2083 ft 132 kts 39°
2026-04-20 19:05 0.05134 6.56280 2009 ft 132 kts 39°
2026-04-20 19:05 0.05809 6.56888 1936 ft 131 kts 47°
2026-04-20 19:05 0.06449 6.57546 1861 ft 131 kts 47°
2026-04-20 19:06 0.07083 6.58202 1820 ft 129 kts 47°
2026-04-20 19:06 0.07698 6.58837 1818 ft 126 kts 47°
2026-04-20 19:06 0.08305 6.59465 1819 ft 125 kts 47°
2026-04-20 19:06 0.08884 6.60104 1822 ft 124 kts 54°
2026-04-20 19:07 0.09363 6.60825 1819 ft 123 kts 59°
2026-04-20 19:07 0.09824 6.61559 1819 ft 123 kts 59°
2026-04-20 19:07 0.10281 6.62292 1820 ft 123 kts 59°
2026-04-20 19:07 0.10730 6.63011 1819 ft 123 kts 59°
2026-04-20 19:08 0.11201 6.63736 1818 ft 123 kts 51°
2026-04-20 19:08 0.12437 6.64932 1815 ft 123 kts 44°
2026-04-20 19:08 0.13061 6.65519 1819 ft 123 kts 44°
2026-04-20 19:09 0.13690 6.66111 1819 ft 123 kts 44°
2026-04-20 19:09 0.14313 6.66698 1820 ft 123 kts 44°
2026-04-20 19:09 0.14941 6.67288 1819 ft 123 kts 44°
2026-04-20 19:09 0.15570 6.67884 1819 ft 123 kts 44°
2026-04-20 19:10 0.16189 6.68470 1819 ft 123 kts 44°
2026-04-20 19:10 0.16823 6.69069 1819 ft 123 kts 44°
2026-04-20 19:10 0.17441 6.69653 1819 ft 123 kts 44°
2026-04-20 19:10 0.18071 6.70248 1819 ft 123 kts 44°
2026-04-20 19:11 0.18760 6.70750 1819 ft 123 kts 28°
2026-04-20 19:11 0.19521 6.71153 1819 ft 123 kts 28°
2026-04-20 19:11 0.20289 6.71555 1819 ft 123 kts 28°
2026-04-20 19:11 0.21056 6.71955 1820 ft 124 kts 28°
2026-04-20 19:12 0.21821 6.72354 1819 ft 124 kts 28°
2026-04-20 19:12 0.22592 6.72756 1819 ft 124 kts 28°
2026-04-20 19:12 0.23360 6.73144 1819 ft 124 kts 23°
2026-04-20 19:12 0.24181 6.73448 1820 ft 124 kts 20°
2026-04-20 19:13 0.24992 6.73740 1807 ft 125 kts 20°
2026-04-20 19:13 0.25825 6.74040 1732 ft 124 kts 20°
2026-04-20 19:13 0.26665 6.74225 1654 ft 122 kts 11°
2026-04-20 19:13 0.27493 6.74372 1579 ft 121 kts 10°
2026-04-20 19:14 0.28331 6.74519 1504 ft 120 kts 10°
2026-04-20 19:14 0.29153 6.74663 1429 ft 120 kts 10°
2026-04-20 19:14 0.29998 6.74656 1353 ft 120 kts 355°
2026-04-20 19:14 0.30833 6.74578 1277 ft 120 kts 354°
2026-04-20 19:15 0.31670 6.74495 1202 ft 120 kts 354°
2026-04-20 19:15 0.32505 6.74412 1127 ft 120 kts 354°
2026-04-20 19:15 0.33295 6.74187 1050 ft 119 kts 335°
2026-04-20 19:15 0.34052 6.73838 1019 ft 116 kts 334°
2026-04-20 19:16 0.34759 6.73447 972 ft 116 kts 322°
2026-04-20 19:16 0.35311 6.72873 943 ft 114 kts 306°
2026-04-20 19:16 0.35719 6.72208 964 ft 110 kts 298°
2026-04-20 19:16 0.36081 6.71546 995 ft 107 kts 296°
2026-04-20 19:17 0.36382 6.70864 977 ft 106 kts 288°
2026-04-20 19:17 0.36643 6.70207 999 ft 93 kts 291°
2026-04-20 19:17 0.36877 6.69607 959 ft 91 kts 290°
2026-04-20 19:17 0.37160 6.69019 829 ft 95 kts 304°
2026-04-20 19:18 0.37714 6.68714 738 ft 91 kts 358°
2026-04-20 19:18 0.38292 6.68948 566 ft 94 kts 62°
2026-04-20 19:18 0.38190 6.69573 311 ft 89 kts 107°
2026-04-20 19:18 0.38069 6.70152 107 ft 78 kts 105°
2026-04-20 19:19 0.37954 6.70624 44 ft 57 kts 103°
2026-04-20 19:19 0.37878 6.70949 42 ft 37 kts 103°
2026-04-20 19:19 0.37807 6.71095 42 ft 15 kts 189°
2026-04-20 19:19 0.37725 6.71091 44 ft 8 kts 170°
2026-04-20 19:20 0.37700 6.71128 44 ft 6 kts 123°
2026-04-20 19:20 0.37664 6.71124 44 ft 5 kts 249°
2026-04-20 19:20 0.37660 6.71087 45 ft 3 kts 273°
2026-04-20 19:20 0.37662 6.71082 45 ft 0 kts 301°